RH
55 50 48 48 46 43 38 39 37 36 34 33 33 33 35 37 38 38 39 40 42 45 45 45 43 44 39 35 36 45 43 46 51 36 36 47 47 53 60 67 70 79 85 75
54 54 52 49 46 43 42 43 39 38 36 38 36 34 37 38 39 39 40 42 44 47 48 46 46 44 41 38 36 46 36 41 41 30 36 41 44 45 57 62 67 72 68 59
64 61 55 50 48 47 47 44 43 39 39 41 38 36 37 38 40 40 41 44 47 49 51 50 53 50 45 42 37 46 37 40 33 39 33 35 39 43 52 55 62 62 65 49
74 62 56 53 51 49 48 46 44 43 42 41 41 38 39 40 41 42 43 46 49 51 54 51 55 52 50 45 47 44 42 45 39 39 38 37 35 37 47 49 47 60 43 48
82 68 62 53 50 49 49 48 47 47 48 47 43 43 41 41 40 42 44 47 47 54 54 52 53 54 50 46 49 46 50 50 49 45 34 40 32 27 35 44 50 51 48 42
75 86 59 49 46 45 49 52 51 48 52 51 49 44 41 42 40 42 43 46 50 55 55 55 55 54 51 48 49 50 56 59 61 53 39 34 32 32 39 39 41 37 39 24
87 77 59 48 44 45 46 45 45 47 51 52 49 45 42 44 42 44 46 48 51 52 54 58 62 59 56 54 54 55 60 66 68 62 41 35 25 32 33 36 31 30 28 25
74 78 49 48 46 50 50 44 43 47 54 52 50 47 47 45 45 48 49 51 51 54 57 62 64 59 56 58 61 65 62 67 71 64 59 37 26 33 35 40 29 22 25 22
65 56 51 56 44 52 41 41 45 50 53 54 51 49 49 49 49 49 54 56 54 55 61 65 65 64 69 59 61 67 70 72 67 72 61 46 33 36 36 35 34 21 22 22
64 66 56 58 46 57 46 49 45 46 50 51 49 49 51 48 50 56 57 57 57 58 63 68 71 68 71 68 68 71 75 76 76 78 75 52 37 39 38 36 25 22 22 21
68 71 62 57 50 55 40 41 42 47 46 48 50 50 49 50 52 56 57 56 56 56 62 68 72 69 71 72 71 70 68 75 75 73 79 60 39 44 40 29 23 21 20 20
71 55 59 64 53 47 47 42 46 46 44 48 50 49 53 54 54 51 51 46 45 47 57 64 67 68 71 73 69 70 71 64 67 63 59 55 45 37 32 28 23 21 20 21
76 63 59 65 51 45 46 41 53 46 42 44 51 50 52 54 54 48 45 48 49 52 56 59 66 67 63 72 75 74 70 67 68 63 63 60 53 42 36 29 24 21 21 21
84 72 71 62 55 49 48 50 50 50 45 43 42 49 53 55 51 52 49 52 54 60 63 63 70 67 61 70 71 72 67 69 70 68 63 61 58 47 38 32 28 22 20 19
78 75 73 63 54 52 55 56 51 47 52 48 50 53 53 59 61 57 55 61 66 67 67 70 73 68 68 74 77 75 63 67 69 67 61 62 59 54 44 38 32 25 21 20
74 73 71 67 57 62 60 43 45 39 38 51 52 57 63 59 65 62 66 71 71 71 71 72 75 71 73 80 81 62 57 59 60 63 64 63 63 61 51 41 35 28 24 22
71 65 72 71 65 66 56 45 47 44 37 43 43 51 62 64 66 66 71 75 76 76 80 85 83 79 79 84 81 62 55 57 63 67 69 69 65 64 57 46 38 30 26 25
67 69 68 70 76 71 67 54 47 52 43 46 47 51 61 66 63 65 71 78 81 81 83 85 82 83 85 81 64 61 60 61 63 67 74 74 70 66 59 51 42 33 29 27
65 66 68 69 71 72 71 55 52 54 52 53 48 57 62 61 61 67 76 79 78 77 80 80 83 82 81 65 61 61 62 62 63 68 77 81 76 71 62 51 42 34 28 29
58 59 62 64 72 69 64 61 60 61 61 60 63 60 59 60 63 74 74 81 76 76 78 81 84 77 65 63 64 67 65 66 70 77 81 76 78 74 65 53 41 35 28 29
66 62 61 66 70 68 67 67 66 59 60 60 57 56 60 60 69 70 78 82 81 79 76 81 78 76 63 61 70 71 74 78 88 87 81 71 75 79 65 54 42 31 27 27
69 66 59 58 69 72 74 67 65 64 62 63 58 58 57 62 67 72 80 78 80 82 77 81 78 65 65 76 78 79 86 93 93 92 88 86 89 73 61 53 39 28 26 29
67 70 62 56 55 60 59 60 63 65 66 70 66 65 66 68 70 76 81 78 81 80 82 78 71 67 84 88 86 88 96 96 96 96 93 88 83 68 56 49 33 27 28 31
67 65 61 56 53 45 52 65 70 61 63 72 70 69 69 69 75 83 81 83 83 82 85 76 78 80 94 97 96 97 96 97 94 92 92 92 80 65 56 41 29 28 30 33
67 64 57 52 43 42 45 51 64 63 67 74 77 75 74 79 83 83 84 89 86 83 83 82 83 89 94 96 98 98 97 97 96 96 96 87 71 62 44 31 28 29 32 35
71 70 54 47 44 49 50 56 67 69 68 69 75 84 86 84 82 84 83 89 88 84 88 86 87 87 93 96 98 97 97 98 97 97 88 78 63 39 28 27 28 30 34 37
65 62 58 57 55 58 53 60 70 70 71 79 83 94 94 92 89 88 84 83 83 86 84 86 88 87 91 97 98 98 97 97 95 88 79 59 38 28 24 25 29 33 37 40